This demonstration page uses our WeatherBlox Daily Observations layout. Learn more.

Left ArrowRight Arrow

Hourly Observations for September 12, 2021

Temp ( °F °C ) Dew Point ( °F °C ) Humidity (%) Winds ( mph kmh ) Pressure ( in mb ) Visibility ( mi km ) Precip ( " mm )
12:52 am 00:52 Partly Cloudy 76 24.4 68 20 77 77 SSE 10 17 29.82 1010 7 11 0.00 0.00
1:52 am 01:52 Mostly Clear 74 23.3 67 19.4 79 79 SSE 5 7 29.83 1010 7 11 0.00 0.00
2:52 am 02:52 Mostly Clear 74 23.3 67 19.4 79 79 SSE 7 11 29.84 1010 7 11 0.00 0.00
3:52 am 03:52 Partly Cloudy 76 24.4 65 18.3 69 69 SW 5 7 29.85 1011 7 11 0.00 0.00
4:52 am 04:52 Mostly Cloudy 72 22.2 67 19.4 84 84 NW 16 26 29.93 1013 7 11 0.00 0.00
5:52 am 05:52 Mostly Cloudy 69 20.6 64 17.8 84 84 N 13 20 29.91 1013 7 11 0.00 0.00
6:52 am 06:52 Mostly Cloudy 67 19.4 62 16.7 84 84 NNE 7 11 29.93 1014 7 11 0.00 0.00
7:31 am 07:31 Mostly Cloudy 68 20 63 17.2 84 84 ESE 5 7 29.91 1013 7 11 0.00 0.00
7:52 am 07:52 Mostly Cloudy 69 20.6 63 17.2 81 81 SE 7 11 29.91 1013 7 11 0.00 0.00
8:52 am 08:52 Mostly Cloudy 71 21.7 63 17.2 76 76 WNW 7 11 29.98 1015 7 11 0.00 0.00
9:24 am 09:24 Cloudy 71 21.7 63 17.2 76 76 NNW 15 24 30.00 1016 7 11 0.00 0.00
9:52 am 09:52 Mostly Cloudy 71 21.7 62 16.7 73 73 NNE 8 13 29.97 1015 7 11 0.00 0.00
10:52 am 10:52 Mostly Cloudy with Light Rain 71 21.7 64 17.8 79 79 SSE 13 20 29.98 1015 7 11 0.00 0.00
11:52 am 11:52 Mostly Cloudy 71 21.7 65 18.3 81 81 N 15 24 29.95 1014 10 16 0.00 0.00
12:37 pm 12:37 Mostly Cloudy 72 22.2 62 16.7 71 71 N 13 20 29.96 1015 10 16 0.00 0.00
12:52 pm 12:52 Mostly Cloudy 72 22.2 62 16.7 71 71 NNW 13 20 29.98 1015 10 16 0.00 0.00
1:52 pm 13:52 Mostly Cloudy with Light Rain 72 22.2 63 17.2 73 73 VRB 6 9 30.01 1016 7 11 0.00 0.00
2:30 pm 14:30 Cloudy 74 23.3 63 17.2 69 69 N 6 9 29.98 1015 10 16 0.00 0.00
2:52 pm 14:52 Cloudy 74 23.3 63 17.2 69 69 NE 6 9 29.99 1016 10 16 0.00 0.00
3:52 pm 15:52 Mostly Cloudy 74 23.3 65 18.3 74 74 E 12 19 29.96 1014 10 16 0.00 0.00
4:52 pm 16:52 Mostly Cloudy 74 23.3 67 19.4 79 79 N 5 7 29.98 1015 10 16 0.00 0.00
5:52 pm 17:52 Cloudy 75 23.9 66 18.9 74 74 NW 6 9 29.99 1016 10 16 0.00 0.00
6:52 pm 18:52 Cloudy 74 23.3 65 18.3 74 74 NNE 5 7 29.98 1015 10 16 0.00 0.00
7:52 pm 19:52 Cloudy 72 22.2 65 18.3 79 79 Calm 29.99 1016 10 16 0.00 0.00
8:52 pm 20:52 Mostly Cloudy 70 21.1 65 18.3 84 84 N 6 9 30.01 1016 10 16 0.00 0.00
9:52 pm 21:52 Mostly Cloudy 70 21.1 64 17.8 82 82 Calm 30.01 1016 10 16 0.00 0.00
10:52 pm 22:52 Partly Cloudy 70 21.1 63 17.2 79 79 VRB 3 6 29.99 1016 10 16 0.00 0.00
11:52 pm 23:52 Partly Cloudy 71 21.7 63 17.2 76 76 Calm 30.00 1016 10 16 0.00 0.00

Powered by AerisWeather